W4KAB Weather Reports


Display with metric or nautical units.
time (UTC)temp
F
wind
direction
speed
MPH
gust
MPH
rain 1hr
in
rain 24hr
in
rain mn
in
humidity
%
barometer
mb
20260504181118 78 306 1.0 1.0 0.00 0.00 0.00 38 1016.7
20260504180617 77 258 0.0 0.0 0.00 0.00 0.00 40 1016.8
20260504180115 76 281 0.0 0.0 0.00 0.00 0.00 40 1016.9
20260504175612 75 271 0.0 0.0 0.00 0.00 0.00 41 1016.8
20260504175109 76 223 0.0 0.0 0.00 0.00 0.00 40 1016.8
20260504174607 76 260 0.0 0.0 0.00 0.00 0.00 41 1016.9
20260504174103 74 297 0.0 0.0 0.00 0.00 0.00 41 1017.0
20260504173600 75 237 0.0 0.0 0.00 0.00 0.00 42 1017.2
20260504173058 75 238 0.0 1.0 0.00 0.00 0.00 42 1017.1
20260504172554 76 4 1.0 1.0 0.00 0.00 0.00 42 1017.2
20260504172050 76 231 0.0 0.0 0.00 0.00 0.00 42 1016.9
20260504171547 75 335 1.0 2.0 0.00 0.00 0.00 41 1016.9
20260504171044 75 270 0.0 0.0 0.00 0.00 0.00 41 1016.9
20260504170540 74 265 0.0 0.0 0.00 0.00 0.00 43 1017.3
20260504150924 67 198 0.0 0.0 0.00 0.00 0.00 44 1019.1
20260504150420 67 240 1.0 2.0 0.00 0.00 0.00 44 1019.1
20260504140847 62 260 0.0 1.0 0.00 0.00 0.00 51 1018.6
20260504140343 62 254 0.0 0.0 0.00 0.00 0.00 52 1018.7
20260504130812 49 285 0.0 0.0 0.00 0.00 0.00 85 1018.8
20260504130308 49 272 0.0 0.0 0.00 0.00 0.00 86 1018.7
20260504120232 43 255 0.0 0.0 0.00 0.00 0.00 90 1018.4
20260504110659 39 300 0.0 0.0 0.00 0.00 0.00 96 1018.4
20260504110155 39 272 0.0 0.0 0.00 0.00 0.00 96 1018.3
20260504100120 40 277 0.0 0.0 0.00 0.00 0.00 95 1018.5
20260504081513 42 287 0.0 0.0 0.00 0.00 0.00 91 1018.1
20260504081008 42 273 0.0 0.0 0.00 0.00 0.00 90 1018.3
20260504080504 43 272 0.0 0.0 0.00 0.00 0.00 90 1018.1
20260504050317 47 265 0.0 0.0 0.00 0.00 0.00 75 1018.4
20260504045814 47 261 0.0 0.0 0.00 0.00 0.00 76 1018.5
20260504045309 47 270 0.0 0.0 0.00 0.00 0.00 75 1018.4
20260504044806 47 267 0.0 0.0 0.00 0.00 0.00 76 1018.6
20260504044304 47 266 0.0 0.0 0.00 0.00 0.00 77 1018.6
20260504043801 47 264 0.0 0.0 0.00 0.00 0.00 75 1018.5
20260504043258 47 266 0.0 0.0 0.00 0.00 0.00 74 1018.6
20260504042755 47 265 0.0 0.0 0.00 0.00 0.00 74 1018.4
20260504042251 47 266 0.0 0.0 0.00 0.00 0.00 74 1018.4
20260504041748 47 266 0.0 0.0 0.00 0.00 0.00 74 1018.4
20260504041244 47 265 0.0 0.0 0.00 0.00 0.00 75 1018.3
20260504040740 47 287 0.0 0.0 0.00 0.00 0.00 75 1018.2
20260504040238 47 280 0.0 0.0 0.00 0.00 0.00 74 1018.4
20260504035734 47 285 0.0 0.0 0.00 0.00 0.00 74 1018.2
20260504035231 48 281 0.0 0.0 0.00 0.00 0.00 72 1018.1
20260504034729 48 264 0.0 0.0 0.00 0.00 0.00 72 1018.1
20260504034226 48 272 0.0 0.0 0.00 0.00 0.00 73 1018.1
20260504033723 48 280 0.0 0.0 0.00 0.00 0.00 72 1018.1
20260504033221 48 286 0.0 0.0 0.00 0.00 0.00 71 1018.1
20260504032717 48 294 0.0 0.0 0.00 0.00 0.00 70 1018.0
20260504032215 49 294 0.0 0.0 0.00 0.00 0.00 73 1018.2
20260504031711 49 274 0.0 0.0 0.00 0.00 0.00 71 1018.4
20260504031208 49 272 0.0 0.0 0.00 0.00 0.00 72 1018.3
20260504030704 49 275 0.0 0.0 0.00 0.00 0.00 71 1018.3
20260504030202 50 266 0.0 0.0 0.00 0.00 0.00 72 1018.2
20260504025658 50 266 0.0 0.0 0.00 0.00 0.00 71 1018.5
20260504025155 50 271 0.0 0.0 0.00 0.00 0.00 69 1018.4
20260504024652 51 279 0.0 0.0 0.00 0.00 0.00 68 1018.3
20260504024148 51 301 0.0 0.0 0.00 0.00 0.00 68 1018.5
20260504023645 52 271 0.0 0.0 0.00 0.00 0.00 65 1018.2
20260504023141 52 264 0.0 0.0 0.00 0.00 0.00 64 1018.4
20260504022638 52 266 0.0 0.0 0.00 0.00 0.00 64 1018.4
20260504022133 52 271 0.0 0.0 0.00 0.00 0.00 64 1018.5
20260504021632 53 291 0.0 0.0 0.00 0.00 0.00 63 1018.4
20260504021128 54 277 0.0 0.0 0.00 0.00 0.00 62 1018.0
20260504020625 54 255 0.0 0.0 0.00 0.00 0.00 57 1018.1
20260504020121 54 280 0.0 0.0 0.00 0.00 0.00 57 1018.1
20260504015618 54 283 0.0 0.0 0.00 0.00 0.00 58 1018.0
20260504015114 55 264 0.0 0.0 0.00 0.00 0.00 60 1018.0
20260504014610 55 262 0.0 0.0 0.00 0.00 0.00 58 1017.8
20260504014108 55 272 0.0 0.0 0.00 0.00 0.00 58 1017.7
20260504013605 55 251 0.0 0.0 0.00 0.00 0.00 58 1017.6
20260504013102 55 92 0.0 0.0 0.00 0.00 0.00 58 1017.5
20260504012559 56 92 0.0 0.0 0.00 0.00 0.00 56 1017.3
20260504012057 56 191 0.0 0.0 0.00 0.00 0.00 54 1017.2
20260504011554 56 277 0.0 0.0 0.00 0.00 0.00 54 1017.3
20260504011050 56 225 0.0 0.0 0.00 0.00 0.00 53 1017.2
20260504010545 56 209 0.0 0.0 0.00 0.00 0.00 53 1017.0
20260504010042 56 264 0.0 0.0 0.00 0.00 0.00 54 1017.3
20260504005538 56 263 0.0 0.0 0.00 0.00 0.00 53 1017.3
20260504005036 56 88 0.0 0.0 0.00 0.00 0.00 55 1017.2
20260504004534 56 88 0.0 0.0 0.00 0.00 0.00 54 1017.2
20260504004030 56 88 0.0 0.0 0.00 0.00 0.00 55 1017.2
20260504003526 56 88 0.0 0.0 0.00 0.00 0.00 54 1016.8
20260504003023 57 88 0.0 0.0 0.00 0.00 0.00 53 1017.0
20260504002520 57 86 0.0 0.0 0.00 0.00 0.00 52 1017.0
20260504002018 58 87 0.0 0.0 0.00 0.00 0.00 51 1016.7
20260504001515 58 68 0.0 0.0 0.00 0.00 0.00 50 1016.7
20260504001011 59 75 0.0 0.0 0.00 0.00 0.00 50 1016.7
20260504000509 59 72 0.0 0.0 0.00 0.00 0.00 49 1016.8
20260504000006 59 76 0.0 0.0 0.00 0.00 0.00 49 1016.8
20260503235504 60 146 0.0 0.0 0.00 0.00 0.00 48 1016.8
20260503235001 61 213 0.0 0.0 0.00 0.00 0.00 48 1016.7
20260503234458 61 193 0.0 0.0 0.00 0.00 0.00 46 1016.7
20260503233956 62 169 0.0 0.0 0.00 0.00 0.00 45 1016.6
20260503233452 63 144 0.0 0.0 0.00 0.00 0.00 44 1016.4
20260503232949 65 86 0.0 0.0 0.00 0.00 0.00 42 1016.7
20260503232446 66 270 0.0 0.0 0.00 0.00 0.00 40 1016.7
20260503231944 66 252 0.0 0.0 0.00 0.00 0.00 35 1016.7
20260503231441 65 268 0.0 0.0 0.00 0.00 0.00 36 1016.6
20260503230937 66 262 0.0 0.0 0.00 0.00 0.00 34 1016.7
20260503230434 66 354 0.0 0.0 0.00 0.00 0.00 33 1016.6
20260503225932 66 281 0.0 0.0 0.00 0.00 0.00 34 1016.4
20260503225428 66 269 0.0 0.0 0.00 0.00 0.00 39 1016.4
20260503224924 66 170 0.0 0.0 0.00 0.00 0.00 40 1016.7
20260503224421 66 257 0.0 0.0 0.00 0.00 0.00 33 1016.8
20260503223919 67 265 0.0 0.0 0.00 0.00 0.00 33 1016.6
20260503223417 67 155 0.0 0.0 0.00 0.00 0.00 39 1016.7
20260503222917 67 268 0.0 0.0 0.00 0.00 0.00 38 1016.7
20260503222416 67 291 0.0 0.0 0.00 0.00 0.00 31 1016.7
20260503221914 68 347 0.0 0.0 0.00 0.00 0.00 32 1016.8
20260503221412 68 358 1.0 2.0 0.00 0.00 0.00 32 1017.0
20260503220908 68 254 0.0 0.0 0.00 0.00 0.00 36 1016.6
20260503220404 68 258 0.0 0.0 0.00 0.00 0.00 31 1016.9
20260503215901 68 266 1.0 2.0 0.00 0.00 0.00 32 1016.3
20260503215358 68 266 2.0 2.0 0.00 0.00 0.00 32 1016.8
20260503214856 68 315 0.0 0.0 0.00 0.00 0.00 31 1017.0
20260503214353 68 274 0.0 2.0 0.00 0.00 0.00 31 1016.9
20260503213850 68 266 0.0 0.0 0.00 0.00 0.00 32 1017.1
20260503213348 69 31 0.0 0.0 0.00 0.00 0.00 29 1017.2
20260503212845 69 338 0.0 0.0 0.00 0.00 0.00 29 1017.3
20260503212343 69 239 1.0 2.0 0.00 0.00 0.00 30 1017.3
20260503211839 69 281 0.0 0.0 0.00 0.00 0.00 26 1017.4
20260503211336 69 297 1.0 2.0 0.00 0.00 0.00 28 1017.3
20260503210831 68 247 0.0 0.0 0.00 0.00 0.00 31 1017.5
20260503210329 69 282 0.0 0.0 0.00 0.00 0.00 29 1017.4
20260503205824 68 253 0.0 0.0 0.00 0.00 0.00 27 1017.3
20260503205321 69 242 0.0 0.0 0.00 0.00 0.00 27 1017.5
20260503204817 68 254 2.0 2.0 0.00 0.00 0.00 27 1017.2
20260503204315 69 278 0.0 0.0 0.00 0.00 0.00 25 1017.5
20260503203812 68 262 0.0 0.0 0.00 0.00 0.00 25 1017.7
20260503203309 69 248 1.0 3.0 0.00 0.00 0.00 26 1017.6
20260503202806 69 359 0.0 1.0 0.00 0.00 0.00 25 1017.6
20260503202304 69 241 0.0 0.0 0.00 0.00 0.00 23 1017.6
20260503201802 70 270 2.0 5.0 0.00 0.00 0.00 24 1017.9
20260503201259 71 320 0.0 0.0 0.00 0.00 0.00 25 1017.9
20260503200756 71 262 0.0 0.0 0.00 0.00 0.00 24 1018.0
20260503200252 70 223 0.0 0.0 0.00 0.00 0.00 23 1017.8
20260503195749 69 264 0.0 0.0 0.00 0.00 0.00 26 1018.0
20260503195246 69 59 2.0 2.0 0.00 0.00 0.00 25 1017.9
20260503194744 68 243 0.0 0.0 0.00 0.00 0.00 24 1018.2
20260503194239 68 345 0.0 0.0 0.00 0.00 0.00 27 1018.2
20260503193735 67 252 1.0 1.0 0.00 0.00 0.00 23 1018.4
20260503193232 69 292 0.0 0.0 0.00 0.00 0.00 25 1018.5
20260503192727 69 255 1.0 2.0 0.00 0.00 0.00 25 1018.4
20260503192222 68 70 0.0 0.0 0.00 0.00 0.00 25 1018.5
20260503191720 68 258 1.0 2.0 0.00 0.00 0.00 26 1018.8
20260503191217 67 245 0.0 0.0 0.00 0.00 0.00 26 1018.7
20260503190714 68 37 0.0 0.0 0.00 0.00 0.00 27 1018.7
20260503190210 68 250 1.0 2.0 0.00 0.00 0.00 34 1018.9
20260503185708 67 267 0.0 0.0 0.00 0.00 0.00 29 1018.7
20260503185203 67 246 0.0 0.0 0.00 0.00 0.00 29 1018.9
20260503184658 67 59 0.0 0.0 0.00 0.00 0.00 28 1019.1
20260503184154 64 18 0.0 0.0 0.00 0.00 0.00 28 1019.0
20260503183650 67 244 2.0 3.0 0.00 0.00 0.00 28 1019.4
20260503183148 66 264 0.0 0.0 0.00 0.00 0.00 32 1019.4
20260503182646 67 44 0.0 0.0 0.00 0.00 0.00 29 1019.4
20260503182144 64 117 0.0 0.0 0.00 0.00 0.00 35 1019.4
20260503181641 64 221 3.0 5.0 0.00 0.00 0.00 29 1019.6